Danforth, Illinois
Current Conditions -  °F | °C
As of 4:15 AM on Thursday 23 Oct 2014 (Local Time) from KIKK Reporting Station
Haze Haze  
Wind Chill: 34°   Ceiling: Unl
Heat Index: 34°   Visibility: 5mi
Dew Point: 33°   Wind: 3mph
Humidity: 96%   Direction: 120°ESE
Pressure: 30.24"   Gusts: NA
Location:  40.82°N, 87.98°W
Report Text: KIKK 230915Z AUTO 12003KT 5SM BR CLR 01/01 A3024 RMK AO2 T00110006
Loading
Personal Weather Stations






























Interactive Weather Map
Tropical Storm Tracking
New forecast layout! Learn more

10-Day Weather Forecast

Advertisements
Track Severe Weather on mobile